This is the latest recevied weather packets stored in our database for station/object W6MAF. If no packets are shown the sender has not sent any weather packets the latest 10 day(s).
| Time | Temp. | Humidity | Pressure | Rain* | Wind** | Luminosity | Snow |
|---|---|---|---|---|---|---|---|
| 1777887929 | 6.67° C | 84% | - | 0 mm | 4.92 m/s, 226° | - | - |
| 1777887628 | 6.67° C | 84% | - | 0 mm | 4.47 m/s, 221° | - | - |
| 1777887330 | 6.67° C | 84% | - | 0 mm | 4.02 m/s, 205° | - | - |
| 1777887033 | 6.67° C | 83% | - | 0 mm | 5.36 m/s, 184° | - | - |
| 1777886735 | 6.67° C | 81% | - | 0 mm | 4.02 m/s, 193° | - | - |
| 1777886437 | 6.67° C | 81% | - | 0 mm | 4.02 m/s, 211° | - | - |
| 1777886140 | 6.67° C | 81% | - | 0 mm | 4.02 m/s, 200° | - | - |
| 1777885541 | 7.22° C | 79% | - | 0 mm | 4.92 m/s, 194° | - | - |
| 1777885243 | 7.22° C | 78% | - | 0 mm | 4.47 m/s, 214° | - | - |
| 1777884946 | 7.22° C | 78% | - | 0 mm | 5.81 m/s, 229° | - | - |
| 1777884648 | 7.22° C | 76% | - | 0 mm | 5.36 m/s, 198° | - | - |
| 1777884351 | 7.22° C | 74% | - | 0 mm | 4.92 m/s, 170° | - | - |
| 1777884050 | 7.22° C | 73% | - | 0 mm | 5.81 m/s, 204° | - | - |
| 1777883752 | 7.22° C | 73% | - | 0 mm | 6.71 m/s, 187° | - | - |
| 1777883455 | 7.22° C | - | - | - | 6.26 m/s, 198° | - | - |
| 1777883455 | 7.22° C | - | - | - | 6.26 m/s, 198° | - | - |
| 1777883454 | 7.22° C | 73% | - | 0 mm | 6.26 m/s, 198° | - | - |
| 1777883157 | 7.22° C | 73% | - | 0 mm | 8.05 m/s, 180° | - | - |
| 1777882859 | 7.22° C | 74% | - | 0 mm | 6.71 m/s, 212° | - | - |
| 1777882561 | 7.22° C | 74% | - | 0 mm | 7.15 m/s, 198° | - | - |
| 1777882260 | 7.78° C | 74% | - | 0 mm | 5.36 m/s, 176° | - | - |
| 1777881963 | 7.78° C | 73% | - | 0 mm | 5.81 m/s, 191° | - | - |
| 1777881367 | 7.78° C | 73% | - | 0 mm | 6.71 m/s, 217° | - | - |
| 1777881071 | 7.78° C | 72% | - | 0 mm | 7.15 m/s, 198° | - | - |
| 1777880772 | 7.78° C | 72% | - | 0 mm | 6.71 m/s, 193° | - | - |
* Rain latest hour (hover to see other rain measurements)
** Current wind speed in m/s (hover to see current wind gust speed)